Ignacio, CO

5:11 PM MST on February 19, 2017 (GMT -0700)
Durango-La Plata County

Weather History for KDRO - March, 2012

Change the Weather History Date:

Friday, March 23, 2012

  Actual Average Record
Temperature  
Mean Temperature 47 °F 40 °F  
Max Temperature 68 °F 55 °F 72 °F (1971)
Min Temperature 26 °F 25 °F 12 °F (1973)
Degree Days  
Heating Degree Days 18 26  
Month to date heating degree days 637 659  
Since 1 July heating degree days 5506 5834  
Cooling Degree Days 0 0  
Month to date cooling degree days 0 0  
Year to date cooling degree days 0 0  
Moisture  
Dew Point 17 °F    
Average Humidity 41    
Maximum Humidity 75    
Minimum Humidity 7    
Precipitation  
Precipitation 0.00 in 0.04 in 0.23 in (1972)
Month to date precipitation 0.28 0.93  
Year to date precipitation 2.10 3.21  
Sea Level Pressure  
Sea Level Pressure 30.03 in    
Wind  
Wind Speed 3 mph (North)    
Max Wind Speed 13 mph    
Max Gust Speed 18 mph    
Visibility 10 miles    
Events      
T = Trace of Precipitation, MM = Missing Value Source: NWS Daily Summary

Daily Weather History Graph

Daily Weather History Graph

Search for Another Location

Airport or City:

Trip Planner

Search our weather history database for the weather conditions in past years. The results will help you decide how hot, cold, wet, or windy it might be!

Date:

Astronomy

Mar. 23, 2012 Rise Set
Actual Time 7:09 AM MDT 7:26 PM MDT
Civil Twilight 6:43 AM MDT 7:52 PM MDT
Nautical Twilight 6:12 AM MDT 8:22 PM MDT
Astronomical Twilight 5:41 AM MDT 8:53 PM MDT
Moon 7:21 AM MDT (3/23) 8:47 PM MDT (3/23)
Length of Visible Light 13h 08m
Length of Day
12h 16m
New Moon, 1% of the Moon is Illuminated
Mar 23
New Moon
Mar 30
First Quarter
Apr 6
Full
Apr 13
Last Quarter
Apr 21
New

Hourly Weather History & Observations

Time (MDT) Temp. Windchill Dew Point Humidity Pressure Visibility Wind Dir Wind Speed Gust Speed Precip Events Conditions
12:53 AM 33.1 °F - 23.0 °F 66% 30.00 in 10.0 mi Calm Calm - N/A   Clear
1:53 AM 34.0 °F 28.8 °F 21.9 °F 61% 29.99 in 10.0 mi NNE 5.8 mph - N/A   Clear
2:53 AM 32.0 °F 28.7 °F 21.9 °F 66% 30.00 in 10.0 mi NNE 3.5 mph - N/A   Clear
3:53 AM 33.1 °F - 21.0 °F 61% 30.00 in 10.0 mi Calm Calm - N/A   Clear
4:53 AM 32.0 °F - 21.0 °F 64% 30.01 in 10.0 mi Calm Calm - N/A   Clear
5:53 AM 27.0 °F 20.5 °F 19.9 °F 75% 30.04 in 10.0 mi NE 5.8 mph - N/A   Clear
6:53 AM 30.0 °F - 21.0 °F 69% 30.06 in 10.0 mi Calm Calm - N/A   Clear
8:53 AM 37.9 °F - 23.0 °F 55% 30.12 in 10.0 mi Calm Calm - N/A   Clear
9:53 AM 46.9 °F - 21.9 °F 37% 30.08 in 10.0 mi Calm Calm - N/A   Clear
10:53 AM 54.0 °F - 21.0 °F 28% 30.08 in 10.0 mi Variable 3.5 mph - N/A   Clear
11:53 AM 59.0 °F - 21.0 °F 23% 30.07 in 10.0 mi South 5.8 mph - N/A   Clear
12:53 PM 61.0 °F - 19.0 °F 20% 30.07 in 10.0 mi Variable 4.6 mph - N/A   Clear
1:53 PM 63.0 °F - 15.1 °F 16% 30.03 in 10.0 mi Calm Calm - N/A   Clear
2:53 PM 66.0 °F - 12.9 °F 13% 30.01 in 10.0 mi West 8.1 mph - N/A   Clear
3:53 PM 66.9 °F - 10.9 °F 11% 29.99 in 10.0 mi Variable 6.9 mph - N/A   Clear
4:53 PM 66.9 °F - 3.9 °F 8% 29.98 in 10.0 mi Variable 6.9 mph - N/A   Clear
5:53 PM 66.0 °F - -0.9 °F 7% 30.00 in 10.0 mi SW 9.2 mph - N/A   Clear
6:53 PM 63.0 °F - 9.0 °F 12% 30.01 in 10.0 mi SW 5.8 mph - N/A   Clear
7:53 PM 60.1 °F - 10.0 °F 14% 30.03 in 10.0 mi Calm Calm - N/A   Clear
8:53 PM 50.0 °F - 16.0 °F 26% 30.06 in 10.0 mi NE 3.5 mph - N/A   Clear
9:53 PM 44.1 °F 42.5 °F 21.0 °F 40% 30.05 in 10.0 mi Variable 3.5 mph - N/A   Clear
10:53 PM 44.1 °F - 19.0 °F 37% 30.04 in 10.0 mi Calm Calm - N/A   Clear
11:53 PM 39.9 °F - 21.0 °F 47% 30.03 in 10.0 mi Calm Calm - N/A   Clear